SV7RNH Weather Reports


time (UTC)temp
C
wind
direction
speed
KPH
gust
KPH
rain 1hr
cm
rain 24hr
cm
rain mn
cm
humidity
%
barometer
mb
20260504021504 10 206 1.6 4.8 0.00 0.05 0.00 45 1021.1
20260504021003 10 0 0.0 4.8 0.00 0.05 0.00 45 1021.1
20260504020503 10 222 1.6 4.8 0.00 0.05 0.00 45 1021.0
20260504020003 10 0 0.0 6.4 0.00 0.05 0.00 45 1020.9
20260504015503 10 215 1.6 6.4 0.00 0.05 0.00 45 1020.9
20260504015004 10 225 1.6 4.8 0.00 0.05 0.00 45 1021.0
20260504014503 10 0 0.0 4.8 0.00 0.05 0.00 45 1021.0
20260504014003 10 225 1.6 4.8 0.00 0.05 0.00 45 1021.0
20260504013503 10 223 1.6 4.8 0.00 0.05 0.00 45 1020.7
20260504013003 10 232 1.6 8.0 0.00 0.05 0.00 44 1020.9
20260504012503 10 0 0.0 8.0 0.00 0.05 0.00 43 1020.7
20260504012004 10 209 1.6 4.8 0.00 0.05 0.00 44 1020.7
20260504011504 10 0 0.0 4.8 0.00 0.05 0.00 44 1020.8
20260504011003 10 225 1.6 3.2 0.00 0.05 0.00 44 1020.6
20260504010503 10 0 0.0 4.8 0.00 0.05 0.00 45 1020.6
20260504010003 10 0 0.0 6.4 0.00 0.05 0.00 45 1020.4
20260504005504 10 0 0.0 6.4 0.00 0.05 0.00 44 1020.4
20260504005004 10 22 1.6 6.4 0.00 0.05 0.00 44 1020.4
20260504004503 10 0 0.0 4.8 0.00 0.05 0.00 44 1020.3
20260504004003 10 0 0.0 4.8 0.00 0.05 0.00 44 1020.3
20260504003504 10 36 1.6 6.4 0.00 0.05 0.00 44 1020.3
20260504003004 11 29 3.2 6.4 0.00 0.05 0.00 44 1020.5
20260504002503 11 55 3.2 6.4 0.00 0.05 0.00 44 1020.4
20260504002004 11 0 0.0 4.8 0.00 0.05 0.00 43 1020.5
20260504001503 11 78 1.6 6.4 0.00 0.05 0.00 43 1020.5
20260504001003 11 0 0.0 6.4 0.00 0.05 0.00 43 1020.5
20260504000503 11 0 0.0 6.4 0.00 0.05 0.00 43 1020.5
20260504000004 11 182 3.2 6.4 0.00 0.05 0.00 44 1020.5
20260503235504 11 0 0.0 6.4 0.00 0.05 0.00 43 1020.4
20260503235003 11 0 0.0 6.4 0.00 0.05 0.00 43 1020.4
20260503234504 11 0 0.0 6.4 0.00 0.05 0.00 43 1020.4
20260503234003 11 348 1.6 6.4 0.00 0.05 0.00 43 1020.3
20260503233503 11 0 0.0 6.4 0.00 0.05 0.00 44 1020.4
20260503233003 11 0 0.0 6.4 0.00 0.05 0.00 44 1020.5
20260503232504 11 0 0.0 6.4 0.00 0.05 0.00 44 1020.6
20260503232004 11 0 0.0 6.4 0.00 0.05 0.00 44 1020.6
20260503231503 11 0 0.0 8.0 0.00 0.05 0.00 44 1020.6
20260503231003 11 0 0.0 8.0 0.00 0.05 0.00 44 1020.6
20260503230503 11 2 1.6 8.0 0.00 0.05 0.00 44 1020.7
20260503230004 11 317 1.6 4.8 0.00 0.05 0.00 43 1020.6
20260503225504 11 235 1.6 6.4 0.00 0.05 0.00 43 1020.6
20260503225003 11 225 1.6 6.4 0.00 0.05 0.00 42 1020.6
20260503224504 12 225 1.6 4.8 0.00 0.05 0.00 41 1020.6
20260503224003 12 0 0.0 4.8 0.00 0.05 0.00 41 1020.6
20260503223503 12 0 0.0 8.0 0.00 0.05 0.00 40 1020.5
20260503223003 12 107 1.6 8.0 0.00 0.05 0.00 39 1020.6
20260503222503 12 214 3.2 8.0 0.00 0.05 0.00 38 1020.6
20260503222004 12 225 1.6 4.8 0.00 0.05 0.00 38 1020.6
20260503221503 12 0 0.0 4.8 0.00 0.05 0.00 36 1020.5
20260503221003 13 201 1.6 4.8 0.00 0.05 0.00 34 1020.5
20260503220504 13 191 1.6 4.8 0.00 0.05 0.00 32 1020.5
20260503220003 13 181 1.6 3.2 0.00 0.05 0.00 30 1020.5
20260503215504 13 0 0.0 3.2 0.00 0.05 0.00 27 1020.5
20260503215003 13 0 0.0 3.2 0.00 0.05 0.00 27 1020.4
20260503214503 13 0 0.0 3.2 0.00 0.05 0.00 26 1020.4
20260503214005 13 0 0.0 3.2 0.00 0.05 0.00 23 1020.5
20260503213503 14 0 0.0 3.2 0.00 0.05 0.00 23 1020.3
20260503213004 14 0 0.0 3.2 0.00 0.05 0.00 22 1020.4
20260503212503 14 0 0.0 3.2 0.00 0.05 0.00 22 1020.3
20260503212004 14 0 0.0 3.2 0.00 0.05 0.00 22 1020.3
20260503211503 14 0 0.0 3.2 0.00 0.05 0.00 22 1020.3
20260503211004 14 0 0.0 3.2 0.00 0.05 0.00 21 1020.2
20260503210503 14 0 0.0 6.4 0.00 0.05 0.00 21 1020.3
20260503210004 15 0 0.0 9.7 0.00 0.05 0.00 21 1020.3
20260503205503 14 123 3.2 9.7 0.00 0.05 0.05 21 1020.3
20260503205004 14 103 3.2 8.0 0.00 0.05 0.05 21 1020.2
20260503204504 14 106 1.6 11.3 0.00 0.05 0.05 21 1020.3
20260503204003 14 139 3.2 11.3 0.00 0.05 0.05 21 1020.3
20260503203503 14 0 0.0 9.7 0.00 0.05 0.05 22 1020.3
20260503203004 14 0 0.0 8.0 0.00 0.05 0.05 22 1020.3
20260503202504 14 64 3.2 6.4 0.00 0.05 0.05 22 1020.3
20260503202003 14 79 1.6 6.4 0.00 0.05 0.05 22 1020.3
20260503201503 14 107 1.6 6.4 0.00 0.05 0.05 23 1020.3
20260503201003 14 0 0.0 6.4 0.00 0.05 0.05 24 1020.2
20260503200503 14 43 1.6 6.4 0.00 0.05 0.05 24 1020.2
20260503200003 14 0 0.0 6.4 0.00 0.05 0.05 23 1020.2
20260503195503 14 102 1.6 6.4 0.00 0.05 0.05 23 1020.2
20260503195003 14 0 0.0 9.7 0.00 0.05 0.05 22 1020.2
20260503194504 15 0 0.0 9.7 0.00 0.05 0.05 21 1020.3
20260503194003 15 127 1.6 8.0 0.00 0.05 0.05 20 1020.2
20260503193504 15 143 1.6 6.4 0.00 0.05 0.05 19 1020.2
20260503193004 15 160 1.6 6.4 0.00 0.05 0.05 19 1020.2
20260503192504 15 42 1.6 6.4 0.00 0.05 0.05 18 1020.1
20260503192003 15 0 0.0 8.0 0.00 0.05 0.05 18 1020.1
20260503191503 16 134 1.6 8.0 0.00 0.05 0.05 17 1020.1
20260503191003 15 161 3.2 6.4 0.00 0.05 0.05 17 1020.1
20260503190504 15 214 4.8 6.4 0.00 0.05 0.05 18 1020.1
20260503190004 15 0 0.0 4.8 0.00 0.05 0.05 17 1020.0
20260503185503 16 0 0.0 4.8 0.00 0.05 0.05 17 1019.9
20260503185003 16 0 0.0 6.4 0.00 0.05 0.05 17 1019.9
20260503184504 16 0 0.0 8.0 0.00 0.05 0.05 17 1020.0
20260503184004 16 0 0.0 8.0 0.00 0.05 0.05 16 1019.9
20260503183503 16 80 3.2 8.0 0.00 0.05 0.05 16 1019.6
20260503183003 16 97 3.2 8.0 0.00 0.05 0.05 16 1019.4
20260503182503 16 115 1.6 11.3 0.00 0.05 0.05 16 1019.3
20260503182005 16 101 3.2 11.3 0.00 0.05 0.05 16 1019.3
20260503181505 16 100 3.2 12.9 0.00 0.05 0.05 16 1019.2
20260503181004 16 110 3.2 14.5 0.00 0.05 0.05 15 1019.2
20260503180503 16 118 3.2 14.5 0.00 0.05 0.05 14 1019.2
20260503180004 17 90 3.2 9.7 0.00 0.05 0.05 15 1019.1
20260503175503 17 0 0.0 8.0 0.00 0.05 0.05 15 1019.2
20260503175004 17 94 3.2 8.0 0.00 0.05 0.05 14 1019.1
20260503174504 17 77 3.2 8.0 0.00 0.05 0.05 13 1019.0
20260503174003 17 0 0.0 3.2 0.00 0.05 0.05 12 1018.9
20260503173504 17 0 0.0 3.2 0.00 0.05 0.05 12 1018.9
20260503173004 17 0 0.0 4.8 0.00 0.05 0.05 12 1018.9
20260503172504 18 0 0.0 4.8 0.00 0.05 0.05 11 1018.9
20260503172003 18 0 0.0 4.8 0.00 0.05 0.05 11 1018.8
20260503171504 18 0 0.0 3.2 0.00 0.05 0.05 11 1018.7
20260503171004 18 0 0.0 4.8 0.00 0.05 0.05 11 1018.7
20260503170503 18 0 0.0 6.4 0.00 0.05 0.05 11 1018.6
20260503151003 20 56 1.6 12.9 0.00 0.05 0.05 10 1018.5
20260503150503 21 31 4.8 12.9 0.00 0.05 0.05 10 1018.6
20260503131004 23 196 1.6 9.7 0.00 0.05 0.05 10 1019.3
20260503130503 22 0 0.0 11.3 0.00 0.05 0.05 10 1019.3
20260503110504 18 243 1.6 8.0 0.00 0.05 0.05 10 1020.0
20260503090503 17 118 1.6 8.0 0.00 0.05 0.05 19 1020.8
20260503081504 16 0 0.0 11.3 0.03 0.05 0.05 32 1020.8
20260503081004 15 257 3.2 11.3 0.03 0.05 0.05 26 1020.9
20260503080503 16 200 1.6 9.7 0.03 0.05 0.05 26 1020.9
20260503072503 15 288 1.6 6.4 0.00 0.03 0.03 45 1020.8
20260503072003 15 28 1.6 6.4 0.00 0.03 0.03 47 1021.0
20260503071503 14 232 3.2 4.8 0.00 0.03 0.03 47 1021.0
20260503071004 14 234 1.6 4.8 0.00 0.03 0.03 50 1020.8
20260503070503 14 246 1.6 4.8 0.00 0.03 0.03 50 1020.8
20260503055003 10 241 3.2 6.4 0.03 0.03 0.03 58 1020.6
20260503054504 10 0 0.0 6.4 0.03 0.03 0.03 58 1020.5
20260503054004 10 225 3.2 8.0 0.03 0.03 0.03 58 1020.5
20260503053503 10 0 0.0 8.0 0.03 0.03 0.03 58 1020.4
20260503053003 10 200 3.2 8.0 0.03 0.03 0.03 57 1020.4
20260503052503 10 252 1.6 6.4 0.03 0.03 0.03 58 1020.6
20260503052004 10 0 0.0 6.4 0.03 0.03 0.03 58 1020.6
20260503051504 10 220 3.2 24.1 0.03 0.03 0.03 57 1020.5
20260503051003 10 66 1.6 24.1 0.03 0.03 0.03 56 1020.3
20260503050503 10 87 6.4 17.7 0.00 0.00 0.00 57 1020.4
20260503050005 10 114 6.4 12.9 0.00 0.00 0.00 59 1020.2
20260503045504 10 213 3.2 6.4 0.00 0.00 0.00 60 1020.1
20260503045003 10 220 1.6 4.8 0.00 0.00 0.00 60 1019.9
20260503044503 10 0 0.0 3.2 0.00 0.00 0.00 60 1019.8
20260503044004 10 72 1.6 6.4 0.00 0.00 0.00 61 1019.9
20260503043504 10 56 1.6 6.4 0.00 0.00 0.00 61 1019.8
20260503043003 10 45 1.6 6.4 0.00 0.00 0.00 62 1019.8
20260503042503 10 337 1.6 6.4 0.00 0.00 0.00 63 1019.6
20260503042003 10 0 0.0 6.4 0.00 0.00 0.00 63 1019.6
20260503041504 10 222 1.6 6.4 0.00 0.00 0.00 63 1019.6
20260503041004 10 230 3.2 6.4 0.00 0.00 0.00 63 1019.6
20260503040503 10 0 0.0 11.3 0.00 0.00 0.00 64 1019.5
20260503040003 10 223 3.2 11.3 0.00 0.00 0.00 65 1019.6
20260503035504 10 218 1.6 6.4 0.00 0.00 0.00 66 1019.6
20260503035004 10 222 1.6 6.4 0.00 0.00 0.00 66 1019.5
20260503034503 10 209 3.2 6.4 0.00 0.00 0.00 66 1019.4
20260503034004 10 0 0.0 6.4 0.00 0.00 0.00 66 1019.3
20260503033503 10 245 3.2 6.4 0.00 0.00 0.00 66 1019.3
20260503033004 10 292 3.2 4.8 0.00 0.00 0.00 66 1019.2
20260503032504 10 283 1.6 4.8 0.00 0.00 0.00 66 1019.2
20260503032003 10 0 0.0 4.8 0.00 0.00 0.00 66 1019.3
20260503031503 10 0 0.0 3.2 0.00 0.00 0.00 66 1019.2
20260503031004 10 0 0.0 6.4 0.00 0.00 0.00 66 1019.1
20260503030504 10 0 0.0 6.4 0.00 0.00 0.00 66 1019.1
20260503030004 10 46 3.2 6.4 0.00 0.00 0.00 66 1019.2
20260503025504 10 0 0.0 4.8 0.00 0.00 0.00 67 1019.2
20260503025003 10 0 0.0 9.7 0.00 0.00 0.00 67 1019.3
20260503024503 9 76 1.6 11.3 0.00 0.00 0.00 67 1019.4
20260503024004 9 74 3.2 11.3 0.00 0.00 0.00 67 1019.5
20260503023503 10 58 3.2 12.9 0.00 0.00 0.00 67 1019.5
20260503023004 10 70 3.2 12.9 0.00 0.00 0.00 67 1019.5
20260503022503 10 55 3.2 12.9 0.00 0.00 0.00 67 1019.4
20260503022003 10 34 3.2 12.9 0.00 0.00 0.00 66 1019.5